International Skating Union - Official Site

ISU World Single Distances Championships 2016
February 11-14, 2016

Draw | Lap Times | Index | Classification

Referee: Jan  BOLT  (NED)
Starter: Mike  MAKOWSKY  (CAN)
StartTime: EndTime: Air Temp: Ice Temp: Humidity:
15:02 16:34 14.7℃ -6.4℃ 38%
Result 5000m Men
Rankings as of Feb 14 2016 2:22PM
Rank: No.: Name: Nation: Time: Behind: Points:
1 59 Sven  Kramer NED NED 6:10.31200m - 18.68 - (18.6)
600m - 47.66 - (28.9)
1000m - 1:17.45 - (29.7)
1400m - 1:46.77 - (29.3)
1800m - 2:15.88 - (29.1)
2200m - 2:45.11 - (29.2)
2600m - 3:14.64 - (29.5)
3000m - 3:43.79 - (29.1)
3400m - 4:13.08 - (29.2)
3800m - 4:42.23 - (29.1)
4200m - 5:11.62 - (29.3)
4600m - 5:41.03 - (29.4)
5000m - 6:10.31 - (29.2)
2 53 Jorrit  Bergsma NED NED 6:10.66200m - 18.98 - (18.9)
600m - 48.41 - (29.4)
1000m - 1:17.87 - (29.4)
1400m - 1:47.11 - (29.2)
1800m - 2:16.60 - (29.4)
2200m - 2:45.95 - (29.3)
2600m - 3:15.71 - (29.7)
3000m - 3:45.21 - (29.5)
3400m - 4:14.75 - (29.5)
3800m - 4:43.97 - (29.2)
4200m - 5:12.84 - (28.8)
4600m - 5:41.71 - (28.8)
5000m - 6:10.66 - (28.9)
0.35
3 75 Sverre Lunde  Pedersen NOR NOR 6:15.08200m - 18.71 - (18.7)
600m - 48.03 - (29.3)
1000m - 1:17.78 - (29.7)
1400m - 1:47.50 - (29.7)
1800m - 2:17.39 - (29.8)
2200m - 2:47.22 - (29.8)
2600m - 3:16.91 - (29.6)
3000m - 3:46.70 - (29.7)
3400m - 4:16.38 - (29.6)
3800m - 4:46.03 - (29.6)
4200m - 5:15.67 - (29.6)
4600m - 5:45.29 - (29.6)
5000m - 6:15.08 - (29.7)
4.77
4 25 Patrick  Beckert GER GER 6:18.45200m - 19.12 - (19.1)
600m - 48.32 - (29.2)
1000m - 1:17.88 - (29.5)
1400m - 1:47.32 - (29.4)
1800m - 2:16.69 - (29.3)
2200m - 2:46.36 - (29.6)
2600m - 3:16.24 - (29.8)
3000m - 3:46.51 - (30.2)
3400m - 4:16.77 - (30.2)
3800m - 4:47.04 - (30.2)
4200m - 5:17.42 - (30.3)
4600m - 5:47.79 - (30.3)
5000m - 6:18.45 - (30.6)
8.14
5 7 Ted-Jan  Bloemen CAN CAN 6:18.81200m - 18.90 - (18.9)
600m - 48.06 - (29.1)
1000m - 1:17.38 - (29.3)
1400m - 1:47.19 - (29.8)
1800m - 2:16.97 - (29.7)
2200m - 2:46.76 - (29.7)
2600m - 3:16.63 - (29.8)
3000m - 3:46.82 - (30.1)
3400m - 4:17.22 - (30.4)
3800m - 4:47.77 - (30.5)
4200m - 5:18.19 - (30.4)
4600m - 5:48.36 - (30.1)
5000m - 6:18.81 - (30.4)
8.50
6 78 Peter  Michael NZL NZL 6:19.11200m - 18.61 - (18.6)
600m - 46.32 - (27.7)
1000m - 1:15.51 - (29.1)
1400m - 1:45.06 - (29.5)
1800m - 2:14.95 - (29.8)
2200m - 2:45.14 - (30.1)
2600m - 3:15.58 - (30.4)
3000m - 3:45.82 - (30.2)
3400m - 4:16.23 - (30.4)
3800m - 4:46.92 - (30.6)
4200m - 5:17.92 - (31.0)
4600m - 5:48.76 - (30.8)
5000m - 6:19.11 - (30.3)
8.80
7 3 Bart  Swings BEL BEL 6:19.13200m - 18.62 - (18.6)
600m - 47.42 - (28.8)
1000m - 1:16.89 - (29.4)
1400m - 1:46.59 - (29.7)
1800m - 2:16.55 - (29.9)
2200m - 2:46.53 - (29.9)
2600m - 3:16.50 - (29.9)
3000m - 3:46.45 - (29.9)
3400m - 4:16.41 - (29.9)
3800m - 4:46.55 - (30.1)
4200m - 5:17.10 - (30.5)
4600m - 5:47.99 - (30.8)
5000m - 6:19.13 - (31.1)
8.82
8 24 Alexis  Contin FRA FRA 6:20.92200m - 18.85 - (18.8)
600m - 47.76 - (28.9)
1000m - 1:17.88 - (30.1)
1400m - 1:48.18 - (30.3)
1800m - 2:18.33 - (30.1)
2200m - 2:48.43 - (30.1)
2600m - 3:18.71 - (30.2)
3000m - 3:48.99 - (30.2)
3400m - 4:19.28 - (30.2)
3800m - 4:49.42 - (30.1)
4200m - 5:19.79 - (30.3)
4600m - 5:50.03 - (30.2)
5000m - 6:20.92 - (30.8)
10.61
9 55 Douwe  de Vries NED NED 6:21.49200m - 18.99 - (18.9)
600m - 48.13 - (29.1)
1000m - 1:17.99 - (29.8)
1400m - 1:48.00 - (30.0)
1800m - 2:17.81 - (29.8)
2200m - 2:48.12 - (30.3)
2600m - 3:18.42 - (30.3)
3000m - 3:48.81 - (30.3)
3400m - 4:19.21 - (30.4)
3800m - 4:49.75 - (30.5)
4200m - 5:20.58 - (30.8)
4600m - 5:51.06 - (30.4)
5000m - 6:21.49 - (30.4)
11.18
10 31 Andrea  Giovannini ITA ITA 6:23.32200m - 18.93 - (18.9)
600m - 48.63 - (29.7)
1000m - 1:18.98 - (30.3)
1400m - 1:48.78 - (29.8)
1800m - 2:19.36 - (30.5)
2200m - 2:49.84 - (30.4)
2600m - 3:20.44 - (30.6)
3000m - 3:50.66 - (30.2)
3400m - 4:21.34 - (30.6)
3800m - 4:51.82 - (30.4)
4200m - 5:22.46 - (30.6)
4600m - 5:53.02 - (30.5)
5000m - 6:23.32 - (30.2)
13.01
11 6 Jordan  Belchos CAN CAN 6:25.86200m - 19.09 - (19.0)
600m - 48.87 - (29.7)
1000m - 1:19.24 - (30.3)
1400m - 1:49.54 - (30.3)
1800m - 2:19.77 - (30.2)
2200m - 2:50.28 - (30.5)
2600m - 3:20.89 - (30.6)
3000m - 3:51.49 - (30.6)
3400m - 4:22.06 - (30.5)
3800m - 4:52.95 - (30.8)
4200m - 5:24.09 - (31.1)
4600m - 5:54.85 - (30.7)
5000m - 6:25.86 - (31.0)
15.55
12 68 Håvard  Bøkko NOR NOR 6:26.14200m - 19.00 - (19.0)
600m - 49.30 - (30.3)
1000m - 1:19.45 - (30.1)
1400m - 1:49.85 - (30.4)
1800m - 2:20.19 - (30.3)
2200m - 2:50.56 - (30.3)
2600m - 3:21.03 - (30.4)
3000m - 3:51.64 - (30.6)
3400m - 4:22.21 - (30.5)
3800m - 4:53.08 - (30.8)
4200m - 5:23.73 - (30.6)
4600m - 5:54.83 - (31.1)
5000m - 6:26.14 - (31.3)
15.83
13 26 Moritz  Geisreiter GER GER 6:27.20200m - 19.15 - (19.1)
600m - 48.54 - (29.3)
1000m - 1:18.90 - (30.3)
1400m - 1:49.69 - (30.7)
1800m - 2:20.29 - (30.6)
2200m - 2:50.88 - (30.5)
2600m - 3:21.40 - (30.5)
3000m - 3:52.37 - (30.9)
3400m - 4:23.19 - (30.8)
3800m - 4:54.02 - (30.8)
4200m - 5:25.04 - (31.0)
4600m - 5:56.21 - (31.1)
5000m - 6:27.20 - (30.9)
16.89
14 84 Jan  Szymanski POL POL 6:27.68200m - 19.37 - (19.3)
600m - 49.73 - (30.3)
1000m - 1:20.55 - (30.8)
1400m - 1:51.06 - (30.5)
1800m - 2:21.51 - (30.4)
2200m - 2:52.09 - (30.5)
2600m - 3:22.61 - (30.5)
3000m - 3:53.13 - (30.5)
3400m - 4:23.26 - (30.1)
3800m - 4:53.51 - (30.2)
4200m - 5:24.12 - (30.6)
4600m - 5:55.62 - (31.5)
5000m - 6:27.68 - (32.0)
17.37
15 94 Yevgeny  Seryaev RUS RUS 6:28.77200m - 19.49 - (19.4)
600m - 49.69 - (30.2)
1000m - 1:20.19 - (30.5)
1400m - 1:50.99 - (30.8)
1800m - 2:21.73 - (30.7)
2200m - 2:52.40 - (30.6)
2600m - 3:22.97 - (30.5)
3000m - 3:53.35 - (30.3)
3400m - 4:23.75 - (30.4)
3800m - 4:54.36 - (30.6)
4200m - 5:25.36 - (31.0)
4600m - 5:56.63 - (31.2)
5000m - 6:28.77 - (32.1)
18.46
16 76 Thomas-Henrik  Søfteland NOR NOR 6:30.07200m - 19.84 - (19.8)
600m - 49.95 - (30.1)
1000m - 1:20.33 - (30.3)
1400m - 1:50.56 - (30.2)
1800m - 2:20.87 - (30.3)
2200m - 2:51.26 - (30.3)
2600m - 3:21.79 - (30.5)
3000m - 3:52.42 - (30.6)
3400m - 4:23.32 - (30.9)
3800m - 4:54.34 - (31.0)
4200m - 5:25.75 - (31.4)
4600m - 5:57.64 - (31.8)
5000m - 6:30.07 - (32.4)
19.76
17 5 Vitaly  Mikhailov BLR BLR 6:33.78200m - 19.90 - (19.9)
600m - 51.47 - (31.5)
1000m - 1:23.27 - (31.8)
1400m - 1:54.50 - (31.2)
1800m - 2:25.90 - (31.4)
2200m - 2:56.98 - (31.0)
2600m - 3:28.15 - (31.1)
3000m - 3:59.22 - (31.0)
3400m - 4:30.41 - (31.1)
3800m - 5:01.35 - (30.9)
4200m - 5:32.40 - (31.0)
4600m - 6:03.06 - (30.6)
5000m - 6:33.78 - (30.7)
23.47
18 42 Ryosuke  Tsuchiya JPN JPN 6:38.11200m - 19.20 - (19.2)
600m - 49.81 - (30.6)
1000m - 1:20.55 - (30.7)
1400m - 1:51.35 - (30.8)
1800m - 2:22.26 - (30.9)
2200m - 2:53.38 - (31.1)
2600m - 3:24.61 - (31.2)
3000m - 3:56.30 - (31.6)
3400m - 4:28.03 - (31.7)
3800m - 5:00.25 - (32.2)
4200m - 5:32.66 - (32.4)
4600m - 6:05.43 - (32.7)
5000m - 6:38.11 - (32.6)
27.80
19 21 Viktor-Hald  Thorup DEN DEN 6:39.38200m - 20.73 - (20.7)
600m - 52.15 - (31.4)
1000m - 1:23.31 - (31.1)
1400m - 1:54.77 - (31.4)
1800m - 2:25.99 - (31.2)
2200m - 2:56.91 - (30.9)
2600m - 3:27.74 - (30.8)
3000m - 3:58.71 - (30.9)
3400m - 4:29.84 - (31.1)
3800m - 5:01.30 - (31.4)
4200m - 5:32.96 - (31.6)
4600m - 6:05.77 - (32.8)
5000m - 6:39.38 - (33.6)
29.07
20 44 Dmitry  Babenko KAZ KAZ DQ200m - 19.18 - (19.1)
600m - 49.67 - (30.4)
1000m - 1:21.10 - (31.4)
1400m - 1:52.17 - (31.0)